Regional Weather Roundup
Issued by NWS Sterling, VA

Home | Current Version | Previous Version | Graphics & Text | Print | Product List | Glossary On
Versions: 1 2 3 4 5 6 7 8 9 10 11 12 13 14 15 16 17 18 19 20 21 22 23 24 25 26 27
000
ASUS41 KLWX 291211
RWRLWX

REGIONAL WEATHER ROUNDUP
NATIONAL WEATHER SERVICE BALTIMORE MD/WASHINGTON DC
800 AM EDT THU SEP 29 2016

Note: "FAIR" indicates few or no clouds below 12,000 feet
with no significant weather and/or obstructions to visibility.
 TC=TEMPERATURE CELSIUS

 * =Non NWS site. Station does not report precipitation (e.g. rain,
    snow, etc.), thunder, or fog.

DCZ001-MDZ009-015-VAZ040>042-051-053>054-291300-
WASHINGTON METRO

CITY           SKY/WX    TMP DP  RH WIND       PRES   REMARKS
WASHINGTON NAT LGT RAIN  69  67  93 E20       30.07F FOG
DULLES         CLOUDY    66  64  93 E17       30.07R FOG
ANDREWS AFB    RAIN      67  65  94 E10G21    30.08S FOG
FT BELVOIR     LGT RAIN  68  64  88 VRB6      30.07S
QUANTICO       LGT RAIN  70  66  87 E12       30.07R
COLLEGE PARK*  CLOUDY    64  63  94 E7        30.09F
LEESBURG*      CLOUDY    66  66 100 SE6G20    30.09R
MANASSAS*      CLOUDY    68  68 100 E9        30.08R
GAITHERSBURG*  CLOUDY    64  61  88 E9G20     30.13S

$$

MDZ006>007-011-014-291300-
BALTIMORE METRO

CITY           SKY/WX    TMP DP  RH WIND       PRES   REMARKS
BWI AIRPORT    TSTM      65  64  97 E3        30.14R FOG
MD SCIENCE CTR   N/A     65  62  90 MISG      30.15R
MARTIN STATE   RAIN      64  64 100 CALM      30.15R
ANNAPOLIS      CLOUDY    70  66  87 E15G23    30.12R
FORT MEADE*    CLOUDY    64  63  94 E3        30.16R VSB 1

$$

MDZ012-015-019>023-291300-
MARYLAND EASTERN SHORE

CITY           SKY/WX    TMP DP  RH WIND       PRES   REMARKS
OCEAN CITY     LGT RAIN N/A N/A N/A E20G36    30.11R
SALISBURY      CLOUDY    69  68  96 E13G21    30.11R
BAY BRIDGE AP* CLOUDY    68  64  88 MISG      30.11R FOG
CAMBRIDGE*     CLOUDY    68  64  88 E12G20    30.11R
EASTON*        CLOUDY    68  66  94 E12G18    30.16R FOG

$$

MDZ017>025-291300-
SOUTHERN MARYLAND

CITY           SKY/WX    TMP DP  RH WIND       PRES   REMARKS
PATUXENT RIVER LGT RAIN  70  67  90 E17G28    30.08R
ST INIGOES     LGT RAIN  71  69  93 E14       30.07R
LEONARDTOWN*   CLOUDY    68  64  88 E7        30.11R

$$

MDZ003>005-291300-
NORTH CENTRAL MARYLAND

CITY           SKY/WX    TMP DP  RH WIND       PRES   REMARKS
FREDERICK*     LGT RAIN  64  64 100 E17G24    30.11S
HAGERSTOWN APT LGT RAIN  61  58  90 N8        30.11R

$$

MDZ501>502-291300-
WESTERN MARYLAND

CITY           SKY/WX    TMP DP  RH WIND       PRES   REMARKS
OAKLAND*       CLOUDY    52  52 100 E10       30.11R FOG
CUMBERLAND*    CLOUDY    59  59 100 NW5       30.14R

$$

VAZ025>031-291300-
SHENANDOAH VALLEY

CITY           SKY/WX    TMP DP  RH WIND       PRES   REMARKS
WINCHESTER*    DRIZZLE   61  61 100 NE5       30.06R
FRONT ROYAL*   CLOUDY    61  61 100 W5        30.06R
LURAY*         DRIZZLE  N/A N/A N/A NE6       30.05R
NEW MARKET*    CLOUDY   N/A N/A N/A NE6       30.05R
STAUNTON*      CLOUDY    62  62  99 CALM      30.07R
WAYNESBORO*    CLOUDY    62  61  97 CALM      30.06R

$$

WVZ021-048>050-054>055-291300-
EASTERN WEST VIRGINIA PANHANDLE

CITY           SKY/WX    TMP DP  RH WIND       PRES   REMARKS
MARTINSBURG    LGT RAIN  60  59  96 N6        30.09R FOG
PETERSBURG*    DRIZZLE   63  61  95 N5        30.07R

$$

VAZ036>039-050-291300-
CENTRAL FOOTHILLS

CITY           SKY/WX    TMP DP  RH WIND       PRES   REMARKS
CHARLOTTESVILL CLOUDY    69  66  90 E3        30.05R FOG
CULPEPER*      CLOUDY    68  67  98 E5        30.06S
ORANGE*          N/A     68  68 100 CALM      30.07R
GORDONSVILLE*  CLOUDY    66  66 100 E5        30.05R
WARRENTON*     CLOUDY    68  63  85 E7        30.05S

$$

VAZ055>057-291300-
NORTH AND CENTRAL PIEDMONT

CITY           SKY/WX    TMP DP  RH WIND       PRES   REMARKS
FREDERICKSBRG* CLOUDY    69  69 100 CALM      30.06R
STAFFORD*      DRIZZLE   67  67 100 E7G18     30.10S

$$

NCZ024-NYZ072-PAZ021-071-VAZ022-071-291300-
OTHER REGIONAL OBSERVATIONS

CITY           SKY/WX    TMP DP  RH WIND       PRES   REMARKS
NEW YORK CITY  CLOUDY    60  52  74 E15G25    30.35R
PHILADELPHIA   LGT RAIN  63  61  93 E17G30    30.21R
PITTSBURGH     CLOUDY    60  60 100 E10       30.08S
ROANOKE        CLOUDY    65  64  97 SE8       30.04R
RICHMOND       LGT RAIN  68  67  96 NE5       30.04R
RALEIGH        MOCLDY    65  64  97 CALM      29.99R

$$

ANZ530>537-291300-
MARINE OBSERVATIONS

STATION/POSITION TIME  TEMP    WIND        PRES
                       AIR SEA DIR/SP/G
                 (UTC) (F)     (DEG/KT/KT) (MB)
THOMAS PT LIGHT  1200   69 73   90/ 28/ 31 1020.1R
BALT KEY BRIDGE  1148   67      70/ 11/ 14 1020.5R
COVE POINT       1148   69     120/ 19/ 24 1019.3R
LEWISETTA        1148   72 72  110/ 21/ 24 1017.8R
SOLOMONS ISLAND  1148   70 74   80/ 16/ 21   N/A
PINEY POINT      1148          110/ 17/ 20   N/A

$$





USA.gov is the U.S. government's official web portal to all federal, state and local government web resources and services.